IONOSFERA-M 2

Last updated on Sat Oct 25 2025 00:02:33 GMT+0000 (Coordinated Universal Time)

1 61736U 24199B 25297.70293200 .00000089 00000+0 59456-4 0 9995 2 61736 98.7457 167.8293 0000425 32.9770 327.1434 14.22699765 97348
UTC large
Height (km)
Speed (km/s)
/
Latitude / Longitude
Inclination (degrees)
Orbital Period (minutes)
Azimuth
Elevation
Range (km)
Doppler Factor

Next 0 passes for location: London (51.5072 / 0.1276)

Sorry there are no passes over London.